Simultaneous Nadir Overpasses (SNOs) Predictions

Prediction of SNOs between GOES-17 and NPP Satellite Orbit:

Table of predicted SNOs for the next 14.0 days since TLE Epoch: 5/17/2019
Index Date Time (GOES-17) GOES-17 Lat,Lon NPP Lat,Lon Distance(km) Time Diff (sec)
1 05/18/2019 10:39:42 0.00,-137.20 0.24,-138.33 128.40 80
2 05/19/2019 10:18:17 0.00,-137.19 -0.75,-133.80 386.84 80
3 05/20/2019 22:40:15 -0.00,-137.15 -0.42,-139.10 222.18 80
4 05/21/2019 22:24:10 0.00,-137.14 0.57,-134.57 293.01 80
5 05/23/2019 10:45:59 -0.01,-137.15 0.62,-139.84 306.75 80
6 05/24/2019 10:24:35 -0.01,-137.14 -0.43,-135.32 207.79 80
7 05/25/2019 22:46:31 0.01,-137.08 -0.80,-140.61 402.73 80
8 05/26/2019 22:30:28 0.01,-137.07 0.26,-136.09 112.00 80
9 05/28/2019 10:52:16 -0.02,-137.08 0.94,-141.36 487.85 80
10 05/29/2019 10:30:52 -0.02,-137.06 -0.05,-136.83 26.30 80




NCC Satellite Simultaneous Nadir Overpasses (SNOs) Prediction Service
